カタログに戻る

COSMOS 1058

運用中軍事LEO
NORAD 11135·PAYLOAD·🇷🇺 Russia

打ち上げ Dec 5, 1978 から Plesetsk Cosmodrome

Loading…

次のパス (今後24時間)

TLE

最新Source: Space-Track

元期: Sep 14, 2026, 12:55 UTC

1 11135U 78109H   26257.53841844 -.00000014  00000-0  11398-4 0  9997
2 11135  74.0145 284.6684 0035737 111.4266  42.6950 12.39504311161731

AllMySatでCOSMOS 1058をリアルタイム追跡

Download on the App Store